Location: Cactus School
(34.5700°N, 118.0931°W)
Time: 15:57:55
(UTC-07:00)

Altair - Visible Passes

Search period start: 14 May 2025 00:00
Search period end: 24 May 2025 00:00
Orbit: 1501 x 1682 km, 47.2° (Epoch: 14 May)

Date Brightness Start Highest point End Pass type
(mag) Time Alt. Az. Time Alt. Az. Time Alt. Az.
19 May 9.5 05:10:38 10° SSE 05:16:28 18° ESE 05:22:24 10° E visible
20 May 9.5 04:46:20 10° SSE 04:51:22 15° ESE 04:56:27 10° E visible
21 May 9.5 04:22:19 10° SE 04:26:16 13° ESE 04:30:16 10° E visible
22 May 9.6 03:58:55 10° SE 04:01:11 11° ESE 04:03:29 10° ESE visible
